CAPE
96 94 90 83 75 69 61 59 55 62 78 83 74 70 71 61 69 55 17 25 38 13 29 0 1 9 1 0 0 0 0 0 0 0 1 0 0 0 3 22 23 3 1 0 0 0 0 0 9 0 0 0 0 0
70 63 58 54 47 50 47 39 43 50 55 67 79 77 84 73 66 59 30 38 24 15 25 0 0 0 0 0 0 0 0 0 0 0 0 0 0 0 8 0 49 19 0 0 0 0 0 0 0 0 0 0 0 0
65 54 41 31 26 25 34 38 41 45 58 64 76 84 78 88 76 48 10 3 24 13 25 22 0 0 0 0 1 7 0 0 0 0 0 0 0 0 7 1 33 5 12 0 0 5 6 4 3 0 0 0 0 0
33 32 31 36 43 39 40 40 40 45 38 45 59 66 65 75 76 67 29 22 19 11 3 10 0 0 0 0 3 5 0 9 2 0 0 0 19 0 0 4 12 5 68 34 0 6 43 13 0 1 0 0 0 0
27 30 26 19 24 26 31 35 35 44 51 56 60 67 68 70 76 58 22 25 4 3 4 3 0 0 0 7 8 16 27 20 6 2 0 4 0 10 0 1 0 6 29 19 4 30 35 9 0 0 0 0 1 0
23 21 24 28 31 26 21 18 26 33 49 51 67 78 74 68 48 25 19 38 9 3 41 9 0 0 0 0 0 29 34 23 11 10 0 5 13 1 0 0 0 0 0 0 0 0 0 0 0 0 0 0 0 0
13 20 21 23 13 23 17 18 21 26 45 55 56 62 69 49 22 0 0 1 11 39 19 1 4 0 0 0 3 22 10 14 12 9 4 14 9 22 0 0 0 0 0 0 0 0 0 11 14 0 0 0 0 0
6 13 19 10 20 24 13 18 26 63 107 96 70 68 36 34 19 29 0 3 0 52 1 0 3 7 3 16 20 5 18 9 12 4 0 1 0 0 0 0 0 0 0 0 0 0 0 0 0 0 0 0 0 0
2 7 14 20 21 27 6 5 35 52 77 69 51 18 21 22 28 43 1 6 34 0 0 0 1 0 0 0 4 0 0 0 0 0 0 1 0 0 0 0 0 0 0 0 0 0 0 0 0 0 0 0 0 0
0 2 13 1 5 29 28 6 6 15 11 6 3 2 0 5 2 6 0 2 2 3 1 0 0 0 0 0 0 0 0 0 0 0 0 0 0 0 0 0 0 0 0 0 0 0 0 0 0 0 0 0 0 0
1 1 1 1 3 12 22 16 18 9 0 0 2 0 5 1 0 1 0 0 3 0 0 0 0 0 0 0 0 0 0 0 0 0 0 0 0 1 0 1 0 0 0 0 0 0 0 0 0 0 0 0 0 0
6 6 6 0 0 1 1 0 0 0 0 0 0 6 0 1 0 0 0 0 0 0 0 0 0 0 0 0 0 0 0 0 1 0 0 0 3 4 2 2 2 0 1 1 0 0 0 0 0 1 2 2 1 1
0 0 0 0 0 0 0 0 0 0 0 0 0 0 1 0 0 0 0 3 0 0 0 0 0 0 0 0 0 0 1 0 0 0 3 1 2 1 2 2 3 2 1 2 2 1 1 2 2 4 4 1 1 1
0 0 0 0 0 0 0 0 0 0 0 0 0 0 0 0 0 0 1 2 1 0 0 0 0 0 0 0 0 0 0 0 2 0 0 1 2 2 1 2 1 2 1 1 2 1 4 1 2 1 0 0 0 1
0 0 0 0 0 0 0 0 0 0 0 0 0 0 0 3 1 3 1 0 1 0 0 0 0 0 0 0 0 0 0 0 0 0 0 2 2 2 1 2 1 0 0 0 0 0 0 0 1 1 0 0 0 0
0 0 0 0 0 0 0 0 0 0 0 0 0 0 0 0 0 0 0 0 2 1 0 0 0 0 0 0 0 0 0 0 0 0 1 1 1 1 1 0 0 0 0 0 0 0 0 0 0 0 0 0 0 0
0 0 0 0 0 0 0 0 0 0 0 0 0 0 0 0 0 0 0 1 1 0 0 0 0 0 0 0 0 1 0 0 2 1 1 0 0 0 0 1 1 1 0 0 0 0 0 1 0 0 0 1 1 1
0 0 0 0 0 0 0 0 0 0 0 0 0 1 0 0 0 0 0 0 0 0 1 1 0 0 0 0 0 0 2 0 0 0 0 0 0 0 1 0 0 1 0 1 1 1 1 0 0 1 2 2 1 2
0 0 0 0 0 0 0 0 0 0 0 0 0 0 0 0 0 0 0 0 0 0 2 0 0 0 0 0 0 0 0 1 0 0 0 0 0 0 0 0 0 0 0 0 1 0 1 1 1 1 2 1 0 1
0 0 0 0 0 0 0 0 0 0 0 0 0 0 0 0 0 0 0 0 0 0 0 0 0 0 0 0 0 0 0 0 0 0 0 0 0 0 0 0 0 0 0 0 0 0 0 0 0 0 0 0 0 0
0 0 0 0 0 0 0 0 0 0 0 0 0 0 0 0 0 0 0 0 0 0 0 0 0 0 0 0 0 0 0 0 0 0 0 0 0 0 0 0 0 0 0 0 0 0 0 0 0 0 0 0 0 0
0 0 0 0 0 0 0 0 0 1 0 0 0 0 0 0 0 0 0 0 0 0 0 0 0 0 0 0 0 0 0 0 0 0 0 0 0 0 0 0 0 0 0 0 0 0 0 1 1 0 0 0 0 0
0 0 0 0 0 0 0 0 0 4 0 0 0 0 0 0 0 0 0 0 1 1 1 1 0 0 0 0 0 0 0 0 0 0 0 0 0 0 0 0 0 0 0 0 0 0 0 0 0 0 0 0 0 0
0 0 0 0 0 0 0 0 0 0 0 0 0 0 0 0 0 0 0 2 1 0 0 0 0 0 0 0 0 0 0 0 0 0 0 0 0 0 0 0 0 0 0 0 0 0 0 0 0 0 0 0 0 0
0 0 0 0 0 0 0 0 0 0 0 0 0 0 0 0 0 0 0 0 0 0 0 0 0 0 0 0 0 0 0 0 0 0 0 0 0 0 0 0 0 0 0 0 0 0 0 0 0 0 0 0 0 0
0 0 0 0 0 0 0 0 0 0 0 0 0 0 0 0 0 0 0 0 0 0 0 0 0 0 0 0 0 0 0 0 0 0 0 0 0 0 0 0 0 0 0 0 0 0 0 0 0 0 0 0 0 0
0 0 0 0 0 0 0 0 0 0 0 0 0 0 0 0 0 0 0 0 0 0 0 0 0 0 0 0 0 0 0 0 0 0 0 0 0 0 0 0 0 0 0 0 0 0 0 0 0 0 0 0 0 0
0 0 0 0 0 0 0 0 0 0 0 0 0 0 0 0 0 0 0 0 0 0 0 0 0 0 0 0 0 0 0 0 0 0 0 0 0 0 0 0 0 0 0 0 0 0 0 0 0 0 0 0 0 0
0 0 0 0 0 0 0 0 0 0 0 0 0 0 0 0 0 0 0 0 0 0 0 0 0 0 0 0 0 0 0 0 0 0 0 0 0 0 0 0 0 0 0 0 0 0 0 0 0 0 0 0 0 0
0 0 0 0 0 0 0 0 0 0 0 0 0 0 0 0 0 0 0 0 0 0 0 0 0 0 0 0 0 0 0 0 0 0 0 0 0 0 0 0 0 0 0 0 0 0 2 0 0 0 0 0 0 0
0 0 0 0 0 0 0 0 0 0 0 0 0 0 0 0 0 0 0 0 0 0 0 0 0 0 0 0 0 0 0 0 0 0 0 0 0 0 0 0 0 0 0 0 0 0 0 0 0 0 0 0 0 0
0 0 0 0 0 0 0 0 0 0 0 0 0 0 0 0 0 0 0 0 0 0 0 0 0 0 0 0 0 0 0 0 0 0 0 0 0 0 0 0 0 0 0 0 0 0 0 0 0 0 0 0 0 0
0 0 0 0 0 0 0 0 0 0 0 0 0 0 0 0 0 0 0 0 0 0 0 0 0 0 0 0 0 0 0 0 0 0 0 0 0 0 0 0 0 0 0 0 0 0 0 0 0 0 0 0 0 0
CIN
0 0 0 0 0 0 0 0 0 0 0 0 0 0 0 -1 0 0 -1 -1 0 -1 0 0 -3 -6 -12 0 0 0 -2 0 0 0 -1 -2 0 0 -2 -4 -30 -25 -31 0 0 0 -1 0 -55 -7 0 0 0 0
0 0 0 0 0 0 0 0 0 0 0 0 0 0 0 0 -2 0 0 -1 -1 0 0 0 0 0 0 0 0 0 0 0 0 0 0 0 0 0 -15 0 -9 -4 0 0 0 0 0 0 -16 0 0 0 0 0
0 0 0 0 0 0 -2 0 0 0 0 0 0 0 0 0 0 -1 -2 -2 0 0 0 0 0 0 0 0 -38 -32 0 0 0 0 0 0 -12 0 -4 -2 -9 -33 -57 -2 0 -106 -13 -143 -157 0 0 0 0 0
0 0 0 0 0 -1 -1 0 -1 -1 0 0 0 0 0 0 0 -1 -1 -2 -1 0 0 0 0 0 0 -9 -60 -54 0 -64 -78 -3 0 -27 -14 0 0 -3 -15 -13 -17 -25 0 -28 -116 -143 -118 -39 0 0 0 0
0 0 0 -4 -4 -1 -8 -11 -7 -3 -1 -1 -10 -1 0 0 0 -1 -5 -4 -4 -5 0 0 0 0 0 -41 -33 -46 -20 -20 -13 -16 0 -3 0 -58 0 -22 0 -5 -20 -13 -11 -39 -66 -120 0 0 0 0 -105 0
0 -5 -5 -5 -4 -14 -15 -14 -6 -1 0 0 0 -5 0 0 -1 -1 0 -2 -5 -3 0 0 0 0 0 0 -1 -28 -45 -40 -29 -17 -15 -36 -50 -17 -14 0 0 0 0 0 0 0 0 0 0 0 0 0 0 0
-4 -7 -12 -6 -7 -4 -1 -2 -3 -1 0 0 -1 -5 -2 -1 -1 0 0 -1 -7 -4 -3 -1 -1 0 0 0 -19 -20 -52 -30 -19 -10 -27 -25 -22 -15 0 0 0 0 0 0 0 0 0 -196 -83 0 0 0 0 0
-12 -11 -11 -7 -1 -1 0 -4 0 -1 0 0 -2 -1 -5 0 -1 -6 0 -1 -1 -1 0 0 -3 -5 -2 -2 -2 -48 -5 -37 -17 -14 0 -9 0 0 0 0 0 0 0 0 0 0 0 0 0 0 0 0 0 0
-3 -13 -10 -2 -7 -1 -1 -16 -2 -1 0 0 0 0 0 0 0 -6 -1 -2 -26 0 0 0 0 -2 0 0 0 0 0 0 0 -1 -1 -15 0 0 0 0 0 0 0 0 0 0 0 0 0 0 0 0 0 0
0 -4 -6 -4 0 0 -1 0 -1 0 0 0 -3 0 0 -1 -1 -2 0 0 -10 0 0 0 0 0 0 0 0 0 0 0 0 0 0 -14 0 0 0 0 0 0 0 0 0 0 0 0 0 0 0 0 0 0
-5 -12 0 -4 -9 -10 -8 -2 -5 -20 0 0 0 0 0 -10 0 0 0 0 0 0 0 0 0 0 0 0 0 0 -1 0 0 0 0 0 0 0 0 0 0 0 0 0 0 0 0 0 0 0 0 0 0 0
0 -3 -10 -19 -4 -8 -12 0 0 0 0 0 0 -6 -2 0 0 0 0 0 0 0 0 0 0 0 0 0 0 0 0 0 -5 0 0 0 0 0 0 0 0 0 0 0 0 0 0 0 0 0 0 0 0 0
0 0 0 0 0 0 0 0 0 0 0 0 -1 0 0 0 0 0 0 -1 0 0 0 0 0 0 0 0 0 0 0 0 0 -1 -1 0 0 0 0 0 0 0 0 0 0 0 0 0 0 0 0 0 0 0
0 0 0 0 0 0 0 0 0 0 0 0 0 0 0 0 0 0 0 0 0 0 0 0 0 0 0 0 0 0 0 0 0 -2 0 0 0 0 0 0 0 0 0 0 0 0 0 0 0 0 0 0 0 0
0 0 0 0 0 0 0 0 0 0 0 0 0 0 0 0 0 0 0 0 0 0 0 0 0 0 0 0 0 0 0 0 0 0 0 0 0 0 0 0 0 0 0 0 0 0 0 0 0 0 0 0 0 0
0 0 0 0 0 0 0 0 0 0 0 0 0 0 0 0 0 0 0 0 0 0 0 0 0 0 0 0 0 0 0 0 0 0 0 0 0 0 0 0 0 0 0 0 0 0 0 0 0 0 0 0 0 0
0 0 0 0 0 0 0 0 0 0 0 0 0 0 0 0 0 0 0 0 0 0 0 0 0 0 0 0 0 0 0 0 0 0 0 0 0 0 0 0 0 0 0 0 0 0 0 0 0 0 0 0 0 0
0 0 0 0 0 0 0 0 0 0 0 0 0 0 0 0 0 0 0 0 0 0 0 0 0 0 0 0 0 0 0 0 0 0 0 0 0 0 0 0 0 0 0 0 0 0 0 0 0 0 0 0 0 0
0 0 0 0 0 0 0 0 0 0 0 0 0 0 0 0 0 0 0 0 0 0 0 0 0 0 0 0 0 0 0 0 0 0 0 0 0 0 0 0 0 0 0 0 0 0 0 0 0 0 0 0 0 0
0 0 0 0 0 0 0 0 0 0 0 0 0 0 0 0 0 0 0 0 0 0 0 0 0 0 0 0 0 0 0 0 0 0 0 0 0 0 0 0 0 0 0 0 0 0 0 0 0 0 0 0 0 0
0 0 0 0 0 0 0 0 0 0 0 0 0 0 0 0 0 0 0 0 0 0 0 0 0 0 0 0 0 0 0 0 0 0 0 0 0 0 0 0 0 0 0 0 0 0 0 0 0 0 0 0 0 0
0 0 0 0 0 0 0 0 0 0 0 0 0 0 0 0 0 0 0 0 0 0 0 0 0 0 0 0 0 0 0 0 0 0 0 0 0 0 0 0 0 0 0 0 0 0 0 0 0 0 0 0 0 0
0 0 0 0 0 0 0 0 0 0 0 0 0 0 0 0 0 0 0 0 0 0 0 0 0 0 0 0 0 0 0 0 0 0 0 0 0 0 0 0 0 0 0 0 0 0 0 0 0 0 0 0 0 0
0 0 0 0 0 0 0 0 0 0 0 0 0 0 0 0 0 0 0 0 0 0 0 0 0 0 0 0 0 0 0 0 0 0 0 0 0 0 0 0 0 0 0 0 0 0 0 0 0 0 0 0 0 0
0 0 0 0 0 0 0 0 0 0 0 0 0 0 0 0 0 0 0 0 0 0 0 0 0 0 0 0 0 0 0 0 0 0 0 0 0 0 0 0 0 0 0 0 0 0 0 0 0 0 0 0 0 0
0 0 0 0 0 0 0 0 0 0 0 0 0 0 0 0 0 0 0 0 0 0 0 0 0 0 0 0 0 0 0 0 0 0 0 0 0 0 0 0 0 0 0 0 0 0 0 0 0 0 0 0 0 0
0 0 0 0 0 0 0 0 0 0 0 0 0 0 0 0 0 0 0 0 0 0 0 0 0 0 0 0 0 0 0 0 0 0 0 0 0 0 0 0 0 0 0 0 0 0 0 0 0 0 0 0 0 0
0 0 0 0 0 0 0 0 0 0 0 0 0 0 0 0 0 0 0 0 0 0 0 0 0 0 0 0 0 0 0 0 0 0 0 0 0 0 0 0 0 0 0 0 0 0 0 0 0 0 0 0 0 0
0 0 0 0 0 0 0 0 0 0 0 0 0 0 0 0 0 0 0 0 0 0 0 0 0 0 0 0 0 0 0 0 0 0 0 0 0 0 0 0 0 0 0 0 0 0 0 0 0 0 0 0 0 0
0 0 0 0 0 0 0 0 0 0 0 0 0 0 0 0 0 0 0 0 0 0 0 0 0 0 0 0 0 0 0 0 0 0 0 0 0 0 0 0 0 0 0 0 0 0 0 0 0 0 0 0 0 0
0 0 0 0 0 0 0 0 0 0 0 0 0 0 0 0 0 0 0 0 0 0 0 0 0 0 0 0 0 0 0 0 0 0 0 0 0 0 0 0 0 0 0 0 0 0 0 0 0 0 0 0 0 0
0 0 0 0 0 0 0 0 0 0 0 0 0 0 0 0 0 0 0 0 0 0 0 0 0 0 0 0 0 0 0 0 0 0 0 0 0 0 0 0 0 0 0 0 0 0 0 0 0 0 0 0 0 0
0 0 0 0 0 0 0 0 0 0 0 0 0 0 0 0 0 0 0 0 0 0 0 0 0 0 0 0 0 0 0 0 0 0 0 0 0 0 0 0 0 0 0 0 0 0 0 0 0 0 0 0 0 0
Wind_Speed
26 24 23 22 22 22 23 23 24 24 24 24 24 24 24 26 29 21 9 14 11 2 7 14 14 11 9 12 6 3 3 2 5 6 5 5 3 6 5 4 5 6 5 3 2 5 6 2 4 1 1 10 3 3
24 24 23 23 23 24 25 26 26 26 26 26 26 26 26 26 27 28 7 13 12 6 1 13 16 16 23 19 10 5 4 3 5 4 3 3 3 1 5 6 5 7 6 5 6 3 24 7 4 5 4 4 7 4
23 21 21 22 25 26 27 28 29 29 29 29 29 28 28 28 28 25 6 6 8 9 5 7 13 11 12 14 7 7 3 4 3 4 4 3 4 5 4 5 6 4 5 4 4 9 21 21 5 3 4 5 9 8
22 23 24 25 25 26 26 26 26 26 27 28 28 29 30 30 30 25 12 5 8 2 2 3 7 17 16 8 9 6 6 2 3 3 2 2 2 4 5 6 6 5 4 6 4 5 9 10 7 8 8 8 10 10
25 25 23 23 22 22 22 21 21 23 26 28 27 28 30 31 30 18 10 6 6 4 3 4 9 18 16 15 12 6 7 4 3 1 2 2 2 2 2 1 4 5 5 4 6 6 4 8 7 4 6 7 8 5
21 15 13 15 15 14 13 14 19 23 28 29 29 29 29 30 33 9 6 8 10 6 4 3 2 15 13 16 10 6 4 4 4 4 3 1 2 2 1 7 7 7 4 2 3 8 13 14 5 1 6 6 6 6
11 10 9 8 7 8 10 13 15 19 27 31 31 30 28 29 16 7 6 7 17 8 2 1 1 4 17 8 8 4 2 3 3 3 3 4 3 3 3 5 4 4 4 5 8 3 8 5 4 1 11 15 12 12
9 9 7 8 7 7 10 4 6 13 29 32 31 27 25 31 15 2 1 24 19 5 3 4 3 4 5 4 6 2 4 2 0 2 1 3 1 2 6 5 7 4 4 7 5 7 12 3 6 8 10 9 14 12
16 12 12 12 14 17 17 13 18 24 27 32 33 34 19 4 4 2 19 21 3 3 3 1 3 4 3 3 3 3 2 3 1 3 4 5 4 8 7 8 6 4 3 6 11 10 5 8 9 8 10 12 13 13
21 16 18 19 24 24 23 32 37 34 37 36 15 5 4 3 36 22 5 3 2 0 1 1 0 3 4 2 2 3 2 3 2 5 0 3 6 6 6 5 4 4 2 2 0 4 5 6 8 7 11 10 13 13
21 21 18 21 21 21 20 21 16 12 10 4 4 4 8 8 5 3 3 2 4 4 4 4 3 6 2 4 4 0 3 4 4 5 7 4 4 3 6 6 5 4 4 3 0 3 9 13 13 13 13 14 13 14
20 19 17 13 14 16 15 14 15 7 4 8 8 6 4 5 4 4 3 2 3 5 1 4 2 3 2 3 5 1 3 2 6 4 3 4 2 5 5 5 5 4 5 11 10 12 15 16 14 15 15 15 14 15
17 19 17 14 14 13 13 8 12 17 9 4 4 4 1 3 6 4 3 2 3 2 3 3 4 3 2 4 4 2 4 5 2 4 3 2 3 5 5 4 5 8 11 14 14 15 17 19 16 16 18 15 16 16
14 16 20 20 19 16 12 11 9 4 4 5 5 8 6 5 4 3 3 3 2 2 5 6 4 3 2 3 3 4 4 2 4 4 1 2 5 4 5 6 6 9 12 14 11 15 14 19 19 18 16 14 17 17
8 11 13 21 16 14 13 14 14 5 6 6 6 7 5 3 3 4 4 3 5 3 2 3 4 3 2 3 0 2 1 2 2 2 2 3 6 6 6 7 9 9 9 13 10 14 14 18 19 20 18 16 17 18
6 6 8 17 12 15 8 9 7 4 6 6 9 4 4 4 6 5 7 4 6 5 2 2 3 3 3 2 4 4 2 1 2 2 2 4 6 7 8 9 9 9 11 12 13 14 16 17 19 20 19 17 16 17
11 4 16 14 9 10 13 6 5 9 6 6 4 5 4 2 3 4 5 6 6 3 3 3 5 4 2 4 3 4 3 2 3 4 4 6 7 8 9 10 10 12 13 13 15 16 17 17 18 20 21 17 18 17
3 6 13 11 4 5 4 6 6 7 9 5 4 3 5 4 5 5 6 6 5 3 4 5 3 7 5 4 3 3 3 5 7 6 6 8 10 9 9 11 11 11 13 14 15 15 15 17 18 14 17 16 16 15
3 7 12 9 6 5 5 6 5 7 6 3 3 4 3 2 5 6 6 8 6 6 5 5 7 4 3 3 3 4 3 3 6 7 8 11 11 11 12 12 13 13 14 13 13 10 11 14 12 10 10 10 11 9
9 11 14 12 6 5 7 5 4 6 4 3 2 6 4 3 5 4 9 8 8 6 8 7 4 3 4 4 4 3 3 4 6 8 7 8 8 12 11 9 9 11 11 12 12 13 11 11 10 9 9 10 10 9
9 8 11 7 5 7 5 3 5 4 4 3 3 1 3 2 9 9 7 6 8 7 5 4 4 4 6 6 6 6 8 7 6 5 5 7 6 8 9 8 9 9 9 8 9 10 11 9 9 9 10 10 9 9
3 8 3 6 5 5 6 6 5 3 4 3 3 3 3 3 4 7 5 10 6 4 4 4 6 6 8 12 9 9 8 11 11 9 9 8 7 7 8 6 8 9 8 7 7 8 8 8 8 9 10 9 9 8
5 6 5 6 7 7 3 2 5 4 3 3 3 4 4 4 3 3 6 5 4 5 5 4 5 7 8 8 11 13 10 10 9 8 8 8 8 8 8 8 7 7 8 7 7 8 8 10 10 9 9 9 8 7
9 8 7 6 7 3 3 6 4 4 5 4 3 4 4 3 3 5 5 3 4 5 7 9 6 4 6 9 9 8 7 7 8 9 7 7 8 8 8 8 8 7 7 6 6 7 7 7 8 8 8 8 7 7
11 11 7 8 6 7 7 6 6 5 4 4 4 5 4 3 4 5 3 3 4 5 5 5 6 6 6 6 6 8 10 7 7 9 7 6 7 7 8 8 8 7 5 6 6 6 6 6 6 7 7 7 8 7
11 6 7 5 5 6 4 5 5 5 4 5 5 3 4 5 6 4 3 2 2 3 3 3 3 5 7 6 5 6 6 5 6 8 7 6 6 5 6 6 5 5 5 4 5 7 6 5 6 8 6 6 7 7
8 5 3 5 3 4 5 4 4 6 6 5 3 5 5 7 3 1 1 2 2 2 4 4 5 5 6 6 6 6 6 7 8 6 5 7 7 6 5 4 5 2 2 5 5 6 7 6 5 6 5 3 2 4
4 5 6 6 6 4 5 4 4 4 2 3 4 6 5 5 2 1 1 1 2 5 6 6 6 6 6 5 5 5 6 6 7 7 7 8 7 6 6 5 5 8 4 4 4 5 5 6 6 5 5 5 2 1
5 3 5 7 5 6 6 4 1 2 3 2 5 2 2 3 1 1 1 2 3 4 4 4 4 4 5 5 5 5 4 3 3 4 6 3 3 4 4 4 4 4 3 5 6 6 7 6 6 5 5 4 3 3
3 2 6 4 7 6 4 2 1 4 3 2 3 4 4 3 4 3 3 3 3 2 2 3 2 3 2 3 2 5 5 3 2 4 4 3 3 1 1 2 2 2 2 4 4 4 8 6 5 4 4 4 3 3
2 5 6 5 4 1 3 2 2 5 5 5 4 5 2 1 3 3 4 3 3 3 4 3 4 3 3 2 2 3 3 5 5 6 5 5 3 2 2 1 1 2 3 4 4 3 3 3 2 3 4 2 1 2
5 4 6 5 0 3 3 3 2 3 3 4 3 3 4 5 3 4 4 3 3 3 3 3 3 1 1 1 2 1 4 3 2 3 5 3 3 1 1 2 2 3 4 5 4 3 3 4 4 3 3 3 2 2
4 4 4 5 4 2 3 4 4 2 4 3 2 1 1 4 3 4 3 4 2 3 3 2 2 2 3 4 4 3 3 3 3 5 5 5 5 4 3 3 3 3 5 4 3 3 3 4 2 2 2 3 3 3
Wind_Direction
280 274 269 263 257 254 251 247 243 240 235 229 223 219 213 208 207 201 201 189 203 176 184 197 198 171 181 203 197 192 96 256 145 180 194 202 203 214 211 216 203 182 168 214 95 230 252 264 33 167 258 259 193 268
279 274 267 262 259 255 251 247 244 240 234 228 223 215 210 206 201 198 212 186 190 218 212 202 218 202 192 190 199 203 221 143 178 164 209 150 215 71 190 239 209 224 189 180 156 273 290 288 242 213 255 265 326 319
283 277 270 264 258 255 253 249 245 238 233 229 222 216 209 201 200 194 194 159 175 196 203 197 213 215 216 212 177 175 231 233 191 185 182 219 199 141 160 230 240 280 167 205 125 254 250 252 238 239 252 307 313 298
284 276 269 266 264 261 256 251 244 235 228 223 217 210 204 199 195 191 187 164 186 135 224 218 181 211 213 199 203 182 180 225 160 150 187 221 182 160 185 212 188 210 187 204 255 287 290 282 251 237 229 181 259 296
286 281 272 269 268 260 255 251 244 233 222 214 205 198 197 192 189 181 175 172 159 149 207 190 194 214 202 201 195 172 188 171 175 207 168 209 278 284 204 146 217 187 211 189 229 251 229 267 270 305 223 222 220 240
303 292 278 271 272 272 270 267 252 238 219 205 195 187 187 188 176 157 144 191 178 186 311 192 204 183 193 194 193 193 183 187 167 150 217 192 284 174 260 251 215 221 211 155 297 316 295 276 282 34 85 27 33 45
297 318 318 312 312 299 293 281 273 243 199 184 179 174 175 175 162 163 179 153 159 159 215 293 188 182 191 174 197 184 158 176 142 193 216 183 203 199 204 208 208 275 288 307 275 311 298 238 256 62 119 94 45 57
18 5 13 18 18 26 17 45 75 112 144 150 153 152 149 157 123 149 17 151 138 146 114 252 175 109 142 152 177 146 195 96 183 191 83 176 216 188 253 223 219 207 297 295 320 296 235 210 82 64 76 77 94 67
33 61 49 55 48 57 48 80 105 110 123 128 123 118 118 101 124 93 129 131 92 136 172 227 131 126 114 106 148 101 146 164 163 167 225 147 210 226 216 205 200 162 209 291 311 285 104 94 91 91 103 91 93 89
51 60 70 73 73 74 61 73 90 93 96 102 102 83 109 121 110 112 72 128 89 270 110 201 203 142 114 139 100 114 113 138 174 233 123 184 248 249 216 197 127 129 124 305 85 200 122 107 97 76 76 84 99 104
50 59 70 88 79 59 59 74 85 75 72 48 65 73 98 95 78 77 112 195 132 158 206 165 147 130 310 109 116 174 147 146 205 245 177 228 252 12 11 56 32 62 113 77 233 34 75 110 121 112 98 92 96 98
60 58 54 47 48 47 44 29 13 37 53 87 105 83 64 43 54 95 145 151 224 170 66 100 128 119 50 75 96 213 142 144 237 144 147 242 91 16 24 19 24 41 106 89 84 88 94 97 103 106 103 98 99 101
41 55 58 40 35 38 56 66 81 113 93 39 59 77 324 2 65 92 178 163 120 96 131 122 91 99 92 60 78 134 165 223 143 211 210 59 34 16 14 38 40 67 75 76 82 87 91 94 96 100 102 100 100 96
31 36 38 29 22 17 25 67 95 137 62 61 59 46 70 8 26 13 343 30 29 22 96 108 97 87 94 94 142 166 223 198 209 230 100 20 5 17 49 58 66 60 74 83 83 93 101 101 96 91 90 97 100 95
41 52 37 11 2 15 16 24 29 54 61 55 34 47 49 34 1 346 326 33 1 326 42 91 69 85 91 115 168 255 150 87 49 304 337 11 48 50 50 66 75 78 78 87 84 91 91 94 94 92 88 88 88 89
10 45 22 353 2 16 32 40 27 60 59 59 41 21 348 25 360 7 3 14 2 340 314 31 124 140 71 65 62 20 44 339 32 29 40 58 63 62 64 70 77 86 89 90 91 93 92 90 92 92 87 85 85 88
54 19 331 338 14 23 30 68 46 47 58 54 49 6 360 27 10 347 339 344 316 299 61 47 56 44 44 72 72 19 32 1 50 65 60 73 81 79 77 78 81 85 90 95 96 95 95 98 96 90 89 87 87 84
42 299 326 353 40 50 32 45 75 65 64 35 70 56 59 36 350 1 336 329 353 41 40 53 31 43 33 38 25 6 49 50 50 57 61 68 74 74 78 84 86 89 88 86 85 88 91 90 89 89 95 95 91 86
289 4 9 23 69 85 67 33 63 88 50 45 30 3 46 25 14 8 5 2 28 43 76 52 51 38 6 356 329 7 32 64 87 70 63 58 63 71 74 74 73 75 76 77 81 80 79 78 84 89 89 91 90 91
8 20 8 35 47 72 64 31 63 82 73 124 90 59 75 28 336 355 24 19 33 55 47 46 29 355 321 298 267 266 59 87 99 88 66 55 57 66 59 68 74 77 77 77 75 78 80 77 69 75 82 86 92 91
16 344 351 29 49 60 83 70 56 95 129 88 175 160 55 31 29 26 31 3 47 37 57 19 1 0 358 10 30 56 54 61 62 75 95 78 57 66 66 63 68 68 74 77 81 75 73 78 83 81 83 81 81 85
327 338 43 19 72 67 71 26 91 108 79 130 103 68 55 36 7 18 20 38 59 26 15 350 7 17 34 33 33 41 62 74 69 70 63 70 73 65 59 58 73 74 69 71 80 85 83 85 90 90 90 89 84 86
2 30 33 26 64 55 35 8 56 30 67 60 32 64 47 48 32 22 67 32 42 12 17 25 24 25 40 43 51 45 44 67 71 68 71 73 71 66 68 62 62 80 84 70 77 84 85 86 86 92 92 89 90 84
27 48 38 46 40 68 35 27 28 41 42 32 37 68 56 75 91 60 65 43 11 8 16 15 18 23 31 38 39 34 36 55 70 59 52 74 75 66 64 65 60 57 62 75 74 78 80 87 92 91 94 95 96 107
63 354 48 8 2 47 40 30 8 43 59 27 59 31 37 47 71 67 66 18 8 12 11 23 43 41 54 52 44 42 34 41 68 76 55 60 79 80 68 62 57 52 61 84 77 84 78 85 90 100 108 117 123 117
70 342 53 19 356 59 23 50 33 24 26 44 23 14 41 60 60 54 56 357 341 8 357 20 44 66 51 38 50 35 22 26 61 63 35 34 51 73 89 88 81 50 28 80 104 101 96 97 105 108 102 103 110 114
61 3 21 28 9 72 52 37 32 57 50 31 343 27 51 59 39 25 92 12 47 359 49 49 57 67 73 66 60 53 51 52 61 70 64 52 46 40 54 82 87 49 38 93 100 112 117 111 104 106 109 65 103 142
92 53 68 321 50 30 98 58 48 51 3 344 62 45 102 148 208 326 82 25 53 64 61 55 52 56 63 66 71 77 73 77 83 85 78 56 45 43 47 52 54 68 59 60 103 102 115 124 129 130 123 131 165 211
43 354 76 31 34 43 46 91 26 312 329 71 107 108 95 52 322 92 52 65 59 78 76 71 51 57 60 54 44 33 21 17 68 71 74 62 24 10 5 46 53 46 46 69 74 111 129 125 142 143 149 143 164 117
2 57 86 51 57 41 331 59 11 296 352 103 93 96 58 32 11 23 53 59 79 91 99 77 67 68 80 75 51 39 22 5 99 129 145 160 184 214 55 78 76 62 58 80 81 54 69 60 57 41 50 50 47 61
72 65 69 55 83 330 216 248 52 65 33 41 24 88 96 102 7 19 35 12 74 79 86 71 57 39 94 83 100 80 31 1 29 64 78 89 99 99 88 87 100 100 93 91 89 87 93 61 87 110 103 115 125 133
41 83 116 95 103 291 21 56 87 81 355 50 348 35 17 45 31 313 341 10 82 75 88 111 101 43 5 54 63 70 86 114 71 86 101 102 94 118 114 97 84 90 98 93 85 88 85 114 115 126 142 184 232 237
62 59 61 88 53 25 291 86 34 58 32 43 5 102 109 130 173 262 315 13 133 141 139 134 117 107 109 112 126 118 95 110 117 92 90 89 97 89 78 66 73 83 97 100 100 105 124 118 126 159 186 203 209 224